Weather History for Minneapolis, MN

Change the Weather History Date:

Tuesday, November 26, 2013

  Actual Average Record
Temperature  
Mean Temperature 23 °F 28 °F  
Max Temperature 31 °F 35 °F 62 °F (1914)
Min Temperature 15 °F 20 °F -16 °F (1977)
Degree Days  
Heating Degree Days 42 37  
Month to date heating degree days 785 785  
Since 1 July heating degree days 1338 1465  
Cooling Degree Days 0 0  
Month to date cooling degree days 0 0  
Year to date cooling degree days 983 753  
Moisture  
Dew Point 7 °F    
Average Humidity 55    
Maximum Humidity 69    
Minimum Humidity 41    
Precipitation  
Precipitation T in 0.06 in 1.76 in (1896)
Month to date precipitation 0.52 1.56  
Year to date precipitation 31.31 29.24  
Snow  
Snow T in 0.40 in 5.00 in (1970)
Month to date snowfall 1.1 7.6  
Since 1 July snowfall 1.1 8.2  
Since 1 September snowfall 1.1 8.2  
Snow Depth 0.00 in    
Sea Level Pressure  
Sea Level Pressure 30.26 in    
Wind  
Wind Speed 16 mph (NW)    
Max Wind Speed 26 mph    
Max Gust Speed 38 mph    
Visibility 10 miles    
Events      
T = Trace of Precipitation, MM = Missing Value Source: NWS Daily Summary

Daily Weather History Graph

Daily Weather History Graph

Search for Another Location

Airport:

Trip Planner

Search our weather history database for the weather conditions in past years. The results will help you decide how hot, cold, wet, or windy it might be!

Date:

Astronomy

Nov. 26, 2013 Rise Set
Actual Time 7:24 AM CST 4:35 PM CST
Civil Twilight 6:52 AM CST 5:08 PM CST
Nautical Twilight 6:15 AM CST 5:44 PM CST
Astronomical Twilight 5:40 AM CST 6:19 PM CST
Moon 12:12 AM CST (11/26) 12:57 PM CST (11/26)
Length of Visible Light 10h 15m
Length of Day
9h 10m
Last Quarter, 41% of the Moon is Illuminated
Nov 26
Last Quarter
Dec 2
New
Dec 9
First Quarter
Dec 17
Full
Dec 25
Last Quarter

Hourly Weather History & Observations

Time (CST) Temp. Windchill Dew Point Humidity Pressure Visibility Wind Dir Wind Speed Gust Speed Precip Events Conditions
12:08 AM 30.2 °F 18.5 °F 19.4 °F 64% 30.07 in 10.0 mi NW 17.3 mph 24.2 mph N/A   Overcast
12:53 AM 30.0 °F 19.1 °F 19.9 °F 66% 30.11 in 10.0 mi NW 15.0 mph 23.0 mph N/A   Overcast
1:53 AM 28.9 °F 19.2 °F 19.0 °F 67% 30.12 in 10.0 mi NW 11.5 mph - N/A   Overcast
2:53 AM 28.9 °F 18.6 °F 19.0 °F 67% 30.12 in 9.0 mi NW 12.7 mph 19.6 mph 0.00 in   Overcast
3:53 AM 27.0 °F 13.5 °F 16.0 °F 63% 30.12 in 10.0 mi WNW 19.6 mph 25.3 mph N/A   Overcast
4:03 AM 26.6 °F 13.4 °F 15.8 °F 64% 30.09 in 10.0 mi WNW 18.4 mph 31.1 mph N/A   Overcast
4:11 AM 26.6 °F 12.7 °F 12.2 °F 55% 30.09 in 10.0 mi NW 20.7 mph 31.1 mph N/A   Overcast
4:53 AM 25.0 °F 12.6 °F 10.0 °F 53% 30.14 in 10.0 mi NW 15.0 mph 31.1 mph N/A   Mostly Cloudy
5:53 AM 23.0 °F 7.2 °F 8.1 °F 53% 30.16 in 10.0 mi NW 23.0 mph 33.4 mph N/A   Partly Cloudy
6:53 AM 19.0 °F 3.2 °F 1.9 °F 47% 30.20 in 10.0 mi NW 19.6 mph 28.8 mph N/A   Partly Cloudy
7:53 AM 18.0 °F 1.3 °F 1.0 °F 48% 30.23 in 10.0 mi NNW 20.7 mph 32.2 mph N/A   Clear
8:53 AM 19.0 °F 6.1 °F 3.0 °F 50% 30.26 in 10.0 mi NW 12.7 mph 24.2 mph N/A   Clear
9:53 AM 19.0 °F 3.6 °F 3.9 °F 52% 30.29 in 10.0 mi NW 18.4 mph 28.8 mph N/A   Mostly Cloudy
10:53 AM 21.0 °F 6.2 °F 3.0 °F 46% 30.29 in 10.0 mi NNW 18.4 mph 24.2 mph N/A   Partly Cloudy
11:53 AM 21.9 °F 7.8 °F 3.0 °F 44% 30.28 in 10.0 mi NW 17.3 mph 25.3 mph N/A   Mostly Cloudy
12:53 PM 21.9 °F 7.3 °F 1.9 °F 42% 30.28 in 10.0 mi NNW 18.4 mph 24.2 mph N/A   Mostly Cloudy
1:53 PM 21.9 °F 6.9 °F 3.0 °F 44% 30.28 in 10.0 mi NNW 19.6 mph 27.6 mph N/A   Scattered Clouds
2:53 PM 21.0 °F 7.1 °F 3.0 °F 46% 30.30 in 10.0 mi NW 16.1 mph 29.9 mph N/A   Scattered Clouds
3:53 PM 19.9 °F 6.7 °F 3.0 °F 48% 30.32 in 10.0 mi NW 13.8 mph - N/A   Partly Cloudy
4:53 PM 19.0 °F 3.6 °F 3.0 °F 50% 30.34 in 10.0 mi NNW 18.4 mph 23.0 mph N/A   Scattered Clouds
5:53 PM 19.9 °F 3.9 °F 3.9 °F 50% 30.37 in 10.0 mi NNW 20.7 mph 25.3 mph N/A   Overcast
6:53 PM 19.0 °F 4.5 °F 3.9 °F 52% 30.38 in 10.0 mi NNW 16.1 mph 23.0 mph N/A   Mostly Cloudy
7:53 PM 18.0 °F 3.1 °F 3.9 °F 54% 30.39 in 10.0 mi NNW 16.1 mph 25.3 mph N/A   Overcast
8:53 PM 17.1 °F 7.6 °F 5.0 °F 59% 30.39 in 9.0 mi NNW 6.9 mph - N/A   Partly Cloudy
9:53 PM 16.0 °F 3.6 °F 6.1 °F 65% 30.40 in 10.0 mi North 10.4 mph 17.3 mph N/A   Partly Cloudy
10:53 PM 15.1 °F 6.4 °F 6.1 °F 68% 30.41 in 10.0 mi North 5.8 mph - N/A   Clear
11:53 PM 15.1 °F 1.8 °F 6.1 °F 68% 30.42 in 10.0 mi NNW 11.5 mph - N/A   Clear